Clermont County, Batavia, OH

11:28 AM EST on December 09, 2019 (GMT -0500)
Clermont County, Batavia

Weather History for KI69 - September, 2019

Change the Weather History Date:

Saturday, September 14, 2019

  Actual Average (KLUK) Record (KLUK)
Temperature  
Mean Temperature 71 °F -  
Max Temperature 79 °F 80 °F 96 °F (1998)
Min Temperature 62 °F 59 °F 40 °F (1964)
Cooling Degree Days 6    
Growing Degree Days 21 (Base 50)    
Moisture  
Dew Point 57 °F    
Average Humidity 61    
Maximum Humidity 85    
Minimum Humidity 39    
Precipitation  
Precipitation 0.00 in - - ()
Sea Level Pressure  
Sea Level Pressure 30.25 in    
Wind  
Wind Speed 5 mph (NW)    
Max Wind Speed 10 mph    
Max Gust Speed -    
Visibility 10 miles    
Events      
Averages and records for this station are not official NWS values.
T = Trace of Precipitation, MM = Missing Value Source: NWS Daily Summary

Daily Weather History Graph

Daily Weather History Graph

Search for Another Location

Airport or City:

Astronomy

Sep. 14, 2019 Rise Set
Actual Time 7:17 AM EDT 7:47 PM EDT
Civil Twilight 6:50 AM EDT 8:13 PM EDT
Nautical Twilight 6:18 AM EDT 8:45 PM EDT
Astronomical Twilight 5:46 AM EDT 9:17 PM EDT
Moon 8:27 PM EDT (9/14) 7:30 AM EDT (9/14)
Length of Visible Light 13h 23m
Length of Day
12h 30m
Full, 100% of the Moon is Illuminated
Sep 14
Full
Sep 21
Last Quarter
Sep 28
New
Oct 5
First Quarter
Oct 13
Full

Hourly Weather History & Observations

Time (EDT) Temp. Dew Point Humidity Pressure Visibility Wind Dir Wind Speed Gust Speed Precip Events Conditions
12:15 AM 78.3 °F 68.4 °F 71% 30.15 in 10.0 mi WNW 3.5 mph - N/A   Clear
12:36 AM 77.7 °F 65.7 °F 66% 30.16 in 10.0 mi NW 6.9 mph - N/A   Clear
12:59 AM 77.2 °F 63.3 °F 62% 30.16 in 10.0 mi NW 6.9 mph - N/A   Clear
1:17 AM 77.0 °F 62.2 °F 60% 30.17 in 10.0 mi NW 6.9 mph - N/A   Clear
1:35 AM 76.5 °F 61.5 °F 60% 30.17 in 10.0 mi NW 6.9 mph - N/A   Clear
1:55 AM 75.6 °F 61.3 °F 61% 30.18 in 10.0 mi NW 9.2 mph - N/A   Scattered Clouds
2:16 AM 75.0 °F 60.1 °F 60% 30.18 in 10.0 mi NNW 8.1 mph - N/A   Clear
2:39 AM 73.6 °F 60.3 °F 63% 30.18 in 10.0 mi WNW 5.8 mph - N/A   Clear
2:57 AM 73.4 °F 60.6 °F 64% 30.19 in 10.0 mi NW 4.6 mph - N/A   Clear
3:35 AM 72.3 °F 61.2 °F 68% 30.19 in 10.0 mi NNW 5.8 mph - N/A   Clear
3:56 AM 71.8 °F 61.7 °F 70% 30.19 in 10.0 mi NW 6.9 mph - N/A   Scattered Clouds
4:19 AM 70.9 °F 60.8 °F 70% 30.20 in 10.0 mi NNW 8.1 mph - N/A   Scattered Clouds
4:37 AM 70.7 °F 59.2 °F 67% 30.20 in 10.0 mi NNW 9.2 mph - N/A   Scattered Clouds
4:55 AM 69.8 °F 58.6 °F 68% 30.20 in 10.0 mi NNW 8.1 mph - N/A   Scattered Clouds
5:15 AM 69.3 °F 58.5 °F 68% 30.21 in 10.0 mi North 4.6 mph - N/A   Scattered Clouds
5:35 AM 68.9 °F 58.8 °F 70% 30.21 in 10.0 mi NNW 6.9 mph - N/A   Scattered Clouds
5:59 AM 68.2 °F 59.0 °F 72% 30.22 in 10.0 mi NNW 3.5 mph - N/A   Scattered Clouds
6:17 AM 67.5 °F 59.0 °F 74% 30.23 in 10.0 mi NW 3.5 mph - N/A   Scattered Clouds
6:35 AM 67.3 °F 59.0 °F 75% 30.23 in 10.0 mi Calm Calm - N/A   Clear
6:55 AM 66.6 °F 58.8 °F 76% 30.24 in 10.0 mi NNW 3.5 mph - N/A   Clear
7:15 AM 66.7 °F 58.6 °F 75% 30.24 in 10.0 mi North 4.6 mph - N/A   Clear
7:39 AM 65.5 °F 58.8 °F 79% 30.25 in 10.0 mi NW 3.5 mph - N/A   Clear
7:57 AM 64.8 °F 59.0 °F 82% 30.26 in 10.0 mi NW 3.5 mph - N/A   Clear
8:15 AM 65.8 °F 59.2 °F 79% 30.26 in 10.0 mi NW 5.8 mph - N/A   Clear
8:38 AM 67.1 °F 59.2 °F 76% 30.28 in 10.0 mi NW 4.6 mph - N/A   Clear
8:56 AM 67.3 °F 57.9 °F 72% 30.29 in 10.0 mi NNW 4.6 mph - N/A   Clear
9:15 AM 67.1 °F 57.9 °F 72% 30.29 in 10.0 mi NW 4.6 mph - N/A   Clear
9:36 AM 67.5 °F 58.3 °F 72% 30.30 in 10.0 mi NW 4.6 mph - N/A   Clear
9:55 AM 68.2 °F 57.2 °F 68% 30.30 in 10.0 mi NNW 5.8 mph - N/A   Clear
10:18 AM 68.4 °F 56.5 °F 66% 30.31 in 10.0 mi NNW 4.6 mph - N/A   Clear
10:36 AM 69.3 °F 56.1 °F 63% 30.32 in 10.0 mi NW 4.6 mph - N/A   Clear
10:55 AM 70.9 °F 56.7 °F 61% 30.32 in 10.0 mi NW 9.2 mph - N/A   Clear
11:15 AM 71.4 °F 56.3 °F 59% 30.32 in 10.0 mi Calm Calm - N/A   Clear
11:35 AM 72.1 °F 55.2 °F 55% 30.32 in 10.0 mi North 3.5 mph - N/A   Clear
11:58 AM 73.6 °F 55.9 °F 54% 30.31 in 10.0 mi NNW 10.4 mph - N/A   Clear
12:16 PM 73.6 °F 53.8 °F 50% 30.31 in 10.0 mi NNW 4.6 mph - N/A   Clear
12:35 PM 74.3 °F 53.4 °F 48% 30.30 in 10.0 mi NNW 6.9 mph - N/A   Clear
12:55 PM 75.2 °F 54.1 °F 48% 30.30 in 10.0 mi WNW 4.6 mph - N/A   Clear
1:15 PM 75.9 °F 54.0 °F 46% 30.29 in 10.0 mi NNW 6.9 mph - N/A   Clear
1:38 PM 76.1 °F 53.6 °F 45% 30.29 in 10.0 mi NW 9.2 mph - N/A   Clear
1:56 PM 74.3 °F 53.1 °F 47% 30.29 in 10.0 mi North 4.6 mph - N/A   Clear
2:15 PM 75.4 °F 54.7 °F 48% 30.28 in 10.0 mi North 6.9 mph - N/A   Clear
2:35 PM 75.2 °F 54.5 °F 48% 30.28 in 10.0 mi NNE 4.6 mph - N/A   Clear
2:59 PM 75.6 °F 54.5 °F 48% 30.27 in 10.0 mi WNW 4.6 mph - N/A   Clear
3:18 PM 77.7 °F 55.4 °F 46% 30.27 in 10.0 mi NNW 3.5 mph - N/A   Clear
3:36 PM 78.1 °F 54.9 °F 45% 30.27 in 10.0 mi NW 6.9 mph - N/A   Clear
3:55 PM 77.5 °F 54.1 °F 44% 30.26 in 10.0 mi WNW 6.9 mph - N/A   Clear
4:15 PM 77.9 °F 53.1 °F 42% 30.26 in 10.0 mi North 5.8 mph - N/A   Clear
4:39 PM 78.3 °F 53.2 °F 42% 30.25 in 10.0 mi Calm Calm - N/A   Clear
4:58 PM 79.2 °F 54.1 °F 42% 30.25 in 10.0 mi Calm Calm - N/A   Clear
5:16 PM 79.7 °F 54.0 °F 41% 30.24 in 10.0 mi NW 6.9 mph - N/A   Clear
5:35 PM 78.4 °F 52.5 °F 40% 30.24 in 10.0 mi NNW 3.5 mph - N/A   Clear
5:55 PM 79.3 °F 53.2 °F 40% 30.23 in 10.0 mi North 3.5 mph - N/A   Clear
6:19 PM 78.8 °F 52.9 °F 40% 30.24 in 10.0 mi WNW 3.5 mph - N/A   Clear
6:37 PM 78.4 °F 52.7 °F 41% 30.23 in 10.0 mi Calm Calm - N/A   Clear
6:56 PM 78.8 °F 52.0 °F 39% 30.22 in 10.0 mi Calm Calm - N/A   Clear
7:15 PM 76.6 °F 56.1 °F 49% 30.22 in 10.0 mi Calm Calm - N/A   Clear
7:35 PM 76.1 °F 54.5 °F 47% 30.22 in 10.0 mi SSE 3.5 mph - N/A   Clear
7:59 PM 73.2 °F 56.1 °F 55% 30.22 in 10.0 mi South 3.5 mph - N/A   Clear
8:17 PM 71.8 °F 56.7 °F 59% 30.23 in 10.0 mi South 3.5 mph - N/A   Clear
8:36 PM 71.6 °F 56.5 °F 59% 30.23 in 10.0 mi SSW 3.5 mph - N/A   Clear
8:55 PM 69.3 °F 57.9 °F 67% 30.24 in 10.0 mi Calm Calm - N/A   Clear
9:15 PM 66.9 °F 58.3 °F 74% 30.24 in 10.0 mi Calm Calm - N/A   Clear
9:39 PM 67.5 °F 57.4 °F 70% 30.25 in 10.0 mi Calm Calm - N/A   Clear
9:57 PM 64.4 °F 58.5 °F 81% 30.25 in 10.0 mi Calm Calm - N/A   Clear
10:15 PM 64.8 °F 57.9 °F 78% 30.25 in 10.0 mi Calm Calm - N/A   Clear
10:35 PM 65.3 °F 57.4 °F 76% 30.26 in 10.0 mi Calm Calm - N/A   Clear
10:55 PM 64.4 °F 57.2 °F 77% 30.25 in 10.0 mi Calm Calm - N/A   Clear
11:19 PM 63.7 °F 56.5 °F 77% 30.25 in 10.0 mi Calm Calm - N/A   Clear
11:37 PM 63.0 °F 57.0 °F 81% 30.25 in 10.0 mi Calm Calm - N/A   Clear
11:55 PM 62.1 °F 57.6 °F 85% 30.25 in 10.0 mi Calm Calm - N/A   Clear